Starlink 31860

operational
NORAD ID: 59670 Int'l Des: 2024-084 Owner: SPXS Country: US Constellation: starlink
LEOCIRCULAR

Über Starlink 31860

Beschreibung wird geladen...

Live-Position

3D-Globus wird geladen...

Nächste Überflüge

Höhenverlauf

Altitude vs Time

uPlot chart will show altitude changes over time

Zweizeiliger Elementsatz

1 59670U 24084S 25352.48215353 .00000232 00000-0 17941-4 0 9996
2 59670 42.9985 136.9370 0001006 258.3382 101.7357 15.27562252 91970
Epoch: 18. Dez. 2025 • Age: 10 hours

Aktueller Status

Höhe 485.4 km
Geschwindigkeit 7.63 km/s
Subsatellitenpunkt 36.71°N, 148.43°W
Startdatum 6. Mai 2024
Alter 1.6 years
Typ internet

Technische Details

Klassifizierung Payload
Masse 730.00 kg
Trockenmasse 700.00 kg
Gesamtmasse 730.00 kg
Länge 0.30 m
Durchmesser 4.10 m
Spannweite 29.00 m
Form Box + pan
Hersteller SPXS
Bus-Typ Starlink V2M
Phasenstatus In Orbit
Besitzer/Staat SPXS/US

Große Konstellationen

Loading constellations...